contact:dominique.lefevre@mio.osupytheas.fr, maurice.libes@osupytheas.fr, didier.mallarino@osupytheas.fr
Project:EMSO http://www.emso-fr.org/EMSO-France
Depth: 2436.0 m
Title:EMSO Ligure Ouest : Data MII capteur AQUADOPP
Date,Latitude,Longitude,X_East,Y_North,Z_Up,Amplitude_X,Amplitude_Y,Amplitude_Z,Batterie,SoundSpeed,Heading,Pitch,Roll,Pressure,TIS,Speed,Direction
, degrees North, degrees East, m.s-1, m.s-1,m.s-1, 1, 1, 1, Volt, m.s-1, degree, degree, degree, dbar, degree_C, m.s-1, degree
2021-07-07T00:04:03,42.805,6.029,0.008,-0.005,-0.011,101.0,102.0,100.0,13.4,1505.2,327.1,-0.7,1.9,2470.522,13.28,0.009,122.0
2021-07-07T00:07:03,42.805,6.029,0.007,0.001,0.003,103.0,102.0,101.0,13.4,1505.2,326.3,-0.8,1.8,2470.472,13.28,0.007,81.9
2021-07-07T00:10:03,42.805,6.029,0.018,0.017,0.002,102.0,102.0,100.0,13.4,1505.2,327.0,-0.8,1.8,2470.523,13.28,0.024,46.6
2021-07-07T00:13:03,42.805,6.029,0.019,0.016,0.026,102.0,102.0,102.0,13.4,1505.2,324.7,-0.8,1.8,2470.497,13.28,0.024,49.9
2021-07-07T00:16:03,42.805,6.029,0.028,-0.006,0.009,102.0,102.0,101.0,13.4,1505.2,325.7,-0.7,1.8,2470.502,13.28,0.028,102.1
2021-07-07T00:19:03,42.805,6.029,0.034,-0.011,-0.006,101.0,103.0,100.0,13.4,1505.2,328.3,-0.8,1.8,2470.503,13.28,0.035,107.9
2021-07-07T00:22:03,42.805,6.029,0.011,-0.014,-0.008,102.0,101.0,102.0,13.3,1505.2,327.5,-0.7,1.8,2470.445,13.28,0.017,141.8
2021-07-07T00:25:03,42.805,6.029,0.015,-0.007,0.013,102.0,102.0,101.0,13.4,1505.2,327.3,-0.8,1.8,2470.509,13.28,0.016,115.0
2021-07-07T00:28:03,42.805,6.029,0.018,-0.01,0.005,103.0,103.0,101.0,13.4,1505.2,326.8,-0.8,1.8,2470.529,13.28,0.02,119.1
2021-07-07T00:31:03,42.805,6.029,0.013,-0.013,0.017,102.0,103.0,101.0,13.4,1505.2,328.0,-0.8,1.8,2470.536,13.28,0.018,135.0
2021-07-07T00:34:03,42.805,6.029,0.032,0.012,0.015,102.0,103.0,101.0,13.4,1505.2,326.4,-0.7,1.8,2470.496,13.28,0.034,69.4
2021-07-07T00:37:03,42.805,6.029,0.004,0.014,0.007,102.0,102.0,102.0,13.4,1505.2,325.0,-0.7,1.8,2470.511,13.28,0.014,15.9
2021-07-07T00:40:03,42.805,6.029,-0.001,-0.001,-0.03,102.0,102.0,102.0,13.4,1505.2,329.7,-0.8,1.8,2470.503,13.28,0.001,225.0
2021-07-07T00:43:03,42.805,6.029,0.004,-0.009,0.026,101.0,103.0,101.0,13.4,1505.2,326.3,-0.7,1.9,2470.479,13.28,0.009,156.0
2021-07-07T00:46:03,42.805,6.029,0.014,-0.008,-0.007,101.0,104.0,101.0,13.4,1505.2,328.8,-0.7,1.8,2470.503,13.28,0.016,119.7
2021-07-07T00:49:03,42.805,6.029,0.022,0.005,0.025,102.0,102.0,100.0,13.4,1505.2,325.0,-0.7,1.8,2470.485,13.28,0.022,77.2
2021-07-07T00:52:03,42.805,6.029,0.021,0.0,0.026,102.0,102.0,100.0,13.4,1505.2,329.8,-0.7,1.9,2470.455,13.28,0.021,90.0
2021-07-07T00:55:03,42.805,6.029,0.012,0.01,0.026,102.0,103.0,101.0,13.4,1505.2,327.1,-0.7,1.8,2470.484,13.28,0.015,50.2
2021-07-07T00:58:03,42.805,6.029,0.013,-0.033,-0.021,101.0,101.0,102.0,13.4,1505.2,329.5,-0.8,1.8,2470.478,13.28,0.035,158.5
2021-07-07T01:04:03,42.805,6.029,0.0,-0.006,0.007,101.0,102.0,100.0,13.4,1505.2,326.3,-0.8,1.8,2470.511,13.28,0.006,180.0
2021-07-07T01:07:03,42.805,6.029,0.038,0.0,0.041,101.0,102.0,100.0,13.3,1505.2,326.3,-0.7,1.8,2470.445,13.28,0.038,90.0
2021-07-07T01:10:03,42.805,6.029,0.011,0.0,0.042,103.0,102.0,99.0,13.4,1505.2,326.5,-0.7,1.8,2470.501,13.28,0.011,90.0
2021-07-07T01:13:03,42.805,6.029,0.024,0.004,0.007,103.0,102.0,100.0,13.4,1505.2,326.6,-0.8,1.8,2470.488,13.28,0.024,80.5
2021-07-07T01:16:03,42.805,6.029,0.019,0.01,0.014,102.0,102.0,101.0,13.4,1505.2,329.1,-0.8,1.8,2470.506,13.28,0.021,62.2
2021-07-07T01:19:03,42.805,6.029,0.012,0.019,0.012,101.0,102.0,101.0,13.3,1505.2,325.6,-0.7,1.8,2470.511,13.28,0.022,32.3
2021-07-07T01:22:03,42.805,6.029,0.025,0.011,0.014,102.0,101.0,101.0,13.4,1505.2,327.6,-0.8,1.8,2470.498,13.28,0.027,66.3
2021-07-07T01:25:03,42.805,6.029,0.01,0.0,-0.002,101.0,103.0,102.0,13.4,1505.2,327.7,-0.8,1.8,2470.526,13.28,0.01,90.0
2021-07-07T01:28:03,42.805,6.029,-0.004,0.005,0.005,102.0,102.0,101.0,13.3,1505.2,325.1,-0.8,1.8,2470.449,13.28,0.006,321.3
2021-07-07T01:31:03,42.805,6.029,0.008,0.003,0.008,102.0,102.0,100.0,13.4,1505.2,326.8,-0.8,1.8,2470.502,13.28,0.008,69.4
2021-07-07T01:34:03,42.805,6.029,-0.006,-0.007,0.002,102.0,104.0,100.0,13.4,1505.2,327.7,-0.7,1.8,2470.479,13.28,0.009,220.6
2021-07-07T01:37:03,42.805,6.029,0.012,0.011,0.003,101.0,101.0,101.0,13.4,1505.2,326.1,-0.7,1.8,2470.462,13.28,0.016,47.5
2021-07-07T01:40:03,42.805,6.029,0.029,0.006,0.021,101.0,101.0,101.0,13.4,1505.2,324.8,-0.7,1.8,2470.53,13.28,0.029,78.3
2021-07-07T01:43:03,42.805,6.029,0.02,0.01,0.02,101.0,102.0,100.0,13.4,1505.2,326.7,-0.8,1.8,2470.508,13.28,0.022,63.4
2021-07-07T01:46:03,42.805,6.029,0.019,-0.004,0.014,102.0,101.0,101.0,13.4,1505.2,329.7,-0.8,1.8,2470.488,13.28,0.019,101.9
2021-07-07T01:49:03,42.805,6.029,0.026,0.008,0.019,101.0,103.0,100.0,13.4,1505.2,327.6,-0.7,1.8,2470.523,13.28,0.027,72.9
2021-07-07T01:52:03,42.805,6.029,0.004,-0.008,-0.007,100.0,104.0,101.0,13.4,1505.2,329.1,-0.7,1.8,2470.522,13.28,0.008,153.4
2021-07-07T01:55:03,42.805,6.029,0.017,-0.002,0.009,102.0,101.0,101.0,13.3,1505.2,326.7,-0.7,1.8,2470.495,13.28,0.017,96.7
2021-07-07T01:58:03,42.805,6.029,0.018,-0.019,-0.015,103.0,101.0,101.0,13.3,1505.2,324.9,-0.7,1.8,2470.538,13.28,0.026,136.5
2021-07-07T02:04:03,42.805,6.029,0.021,0.008,0.011,102.0,101.0,101.0,13.4,1505.2,327.2,-0.7,1.8,2470.537,13.28,0.022,69.1
2021-07-07T02:07:03,42.805,6.029,-0.002,-0.01,-0.007,100.0,103.0,101.0,13.4,1505.2,325.6,-0.7,1.8,2470.531,13.28,0.01,191.3
2021-07-07T02:10:03,42.805,6.029,0.013,-0.007,-0.012,101.0,104.0,99.0,13.4,1505.2,324.5,-0.7,1.8,2470.521,13.28,0.014,118.3
2021-07-07T02:13:03,42.805,6.029,0.004,0.0,0.008,102.0,101.0,100.0,13.4,1505.2,329.7,-0.8,1.8,2470.528,13.28,0.004,90.0
2021-07-07T02:16:03,42.805,6.029,-0.011,0.0,0.011,102.0,102.0,100.0,13.4,1505.2,329.8,-0.7,1.8,2470.529,13.28,0.011,270.0
2021-07-07T02:19:03,42.805,6.029,0.001,-0.011,0.0,102.0,103.0,100.0,13.4,1505.2,326.0,-0.8,1.8,2470.502,13.28,0.011,174.8
2021-07-07T02:22:03,42.805,6.029,0.019,-0.009,-0.017,101.0,102.0,100.0,13.4,1505.2,329.2,-0.8,1.9,2470.498,13.28,0.021,115.3
2021-07-07T02:25:03,42.805,6.029,0.008,0.009,0.013,102.0,103.0,101.0,13.3,1505.2,325.6,-0.8,1.8,2470.477,13.28,0.012,41.6
2021-07-07T02:28:03,42.805,6.029,-0.003,-0.02,-0.001,102.0,102.0,100.0,13.4,1505.2,327.7,-0.8,1.8,2470.491,13.28,0.02,188.5
2021-07-07T02:31:03,42.805,6.029,0.022,-0.019,0.002,101.0,103.0,101.0,13.4,1505.2,328.7,-0.7,1.8,2470.54,13.28,0.029,130.8
2021-07-07T02:34:03,42.805,6.029,-0.007,-0.003,-0.006,103.0,101.0,100.0,13.4,1505.2,330.4,-0.8,1.8,2470.472,13.28,0.007,246.8
2021-07-07T02:37:03,42.805,6.029,0.019,-0.012,0.002,102.0,101.0,100.0,13.4,1505.2,325.7,-0.8,1.8,2470.508,13.28,0.022,122.3
2021-07-07T02:40:03,42.805,6.029,0.004,-0.01,-0.021,102.0,101.0,101.0,13.4,1505.2,326.3,-0.7,1.8,2470.507,13.28,0.01,158.2
2021-07-07T02:43:03,42.805,6.029,0.014,0.0,0.012,102.0,102.0,99.0,13.4,1505.2,325.4,-0.7,1.8,2470.513,13.28,0.014,90.0
2021-07-07T02:46:03,42.805,6.029,0.028,-0.006,0.0,102.0,103.0,100.0,13.4,1505.2,328.6,-0.7,1.8,2470.503,13.28,0.028,102.1
2021-07-07T02:49:03,42.805,6.029,-0.001,0.005,0.023,103.0,103.0,100.0,13.3,1505.2,325.0,-0.7,1.8,2470.494,13.28,0.005,348.7
2021-07-07T02:52:03,42.805,6.029,-0.01,0.0,-0.008,101.0,102.0,100.0,13.3,1505.2,326.2,-0.7,1.8,2470.509,13.28,0.01,270.0
2021-07-07T02:55:03,42.805,6.029,-0.005,-0.001,0.004,102.0,100.0,100.0,13.4,1505.2,329.4,-0.7,1.8,2470.498,13.28,0.005,258.7
2021-07-07T02:58:03,42.805,6.029,-0.026,0.009,-0.014,101.0,102.0,101.0,13.4,1505.2,328.2,-0.7,1.9,2470.508,13.28,0.027,289.1
2021-07-07T03:04:03,42.805,6.029,0.013,-0.005,0.002,103.0,102.0,100.0,13.4,1505.2,326.1,-0.7,1.8,2470.539,13.28,0.013,111.0
2021-07-07T03:07:03,42.805,6.029,0.0,0.003,0.0,102.0,103.0,100.0,13.3,1505.2,325.7,-0.7,1.8,2470.564,13.28,0.003,0.0
2021-07-07T03:10:03,42.805,6.029,0.024,-0.002,0.007,101.0,103.0,102.0,13.4,1505.2,328.0,-0.8,1.8,2470.54,13.28,0.024,94.8
2021-07-07T03:13:03,42.805,6.029,0.012,-0.006,0.002,103.0,101.0,101.0,13.3,1505.2,328.5,-0.7,1.8,2470.504,13.28,0.013,116.6
2021-07-07T03:16:03,42.805,6.029,0.01,0.0,0.005,102.0,103.0,101.0,13.3,1505.2,327.2,-0.8,1.8,2470.531,13.28,0.01,90.0
2021-07-07T03:19:03,42.805,6.029,-0.009,0.011,-0.027,101.0,102.0,100.0,13.4,1505.2,327.7,-0.8,1.8,2470.59,13.28,0.014,320.7
2021-07-07T03:22:03,42.805,6.029,-0.012,0.003,0.015,101.0,102.0,101.0,13.4,1505.2,326.1,-0.7,1.8,2470.554,13.28,0.012,284.0
2021-07-07T03:25:03,42.805,6.029,0.006,0.003,0.016,102.0,102.0,100.0,13.4,1505.2,326.8,-0.7,1.8,2470.528,13.28,0.006,63.4
2021-07-07T03:28:03,42.805,6.029,0.016,-0.003,-0.008,101.0,102.0,100.0,13.3,1505.2,326.8,-0.8,1.8,2470.514,13.28,0.016,100.6
2021-07-07T03:31:03,42.805,6.029,0.028,0.009,-0.002,102.0,102.0,101.0,13.4,1505.2,326.7,-0.7,1.8,2470.548,13.28,0.029,72.2
2021-07-07T03:34:03,42.805,6.029,-0.006,-0.004,-0.007,102.0,101.0,101.0,13.3,1505.2,326.6,-0.8,1.8,2470.516,13.28,0.007,236.3
2021-07-07T03:37:03,42.805,6.029,0.006,0.012,0.012,101.0,102.0,100.0,13.4,1505.2,326.0,-0.8,1.8,2470.545,13.28,0.013,26.6
2021-07-07T03:40:03,42.805,6.029,0.032,-0.015,0.019,102.0,102.0,100.0,13.3,1505.2,328.0,-0.7,1.8,2470.533,13.28,0.035,115.1
2021-07-07T03:43:03,42.805,6.029,0.022,-0.01,0.023,103.0,103.0,100.0,13.3,1505.2,328.4,-0.8,1.8,2470.589,13.28,0.024,114.4
2021-07-07T03:46:03,42.805,6.029,0.006,-0.001,0.033,102.0,102.0,101.0,13.3,1505.2,327.3,-0.8,1.8,2470.526,13.28,0.006,99.5
2021-07-07T03:49:03,42.805,6.029,-0.016,-0.01,-0.005,103.0,103.0,101.0,13.4,1505.2,324.8,-0.7,1.8,2470.53,13.28,0.018,238.0
2021-07-07T03:52:03,42.805,6.029,0.019,0.001,0.012,103.0,103.0,101.0,13.3,1505.2,330.0,-0.7,1.8,2470.554,13.28,0.019,87.0
2021-07-07T03:55:03,42.805,6.029,0.002,0.012,0.022,101.0,103.0,101.0,13.4,1505.2,327.9,-0.8,1.8,2470.535,13.28,0.012,9.5
2021-07-07T03:58:03,42.805,6.029,-0.002,0.009,0.003,102.0,102.0,100.0,13.3,1505.2,325.5,-0.7,1.9,2470.551,13.28,0.009,347.5
2021-07-07T04:04:03,42.805,6.029,0.002,-0.004,0.021,101.0,103.0,101.0,13.3,1505.2,326.6,-0.8,1.8,2470.586,13.28,0.004,153.4
2021-07-07T04:07:03,42.805,6.029,0.001,-0.006,0.009,101.0,101.0,101.0,13.3,1505.2,326.1,-0.8,1.8,2470.53,13.28,0.006,170.5
2021-07-07T04:10:03,42.805,6.029,0.014,0.006,0.032,101.0,101.0,100.0,13.4,1505.2,330.0,-0.8,1.8,2470.562,13.28,0.015,66.8
2021-07-07T04:13:03,42.805,6.029,0.013,0.013,0.031,103.0,102.0,101.0,13.4,1505.2,325.3,-0.8,1.8,2470.574,13.28,0.018,45.0
2021-07-07T04:16:03,42.805,6.029,0.022,-0.014,0.022,101.0,104.0,101.0,13.3,1505.2,325.4,-0.8,1.8,2470.571,13.28,0.026,122.5
2021-07-07T04:19:03,42.805,6.029,0.031,-0.001,0.006,103.0,102.0,100.0,13.3,1505.2,327.3,-0.8,1.8,2470.601,13.28,0.031,91.8
2021-07-07T04:22:03,42.805,6.029,0.003,-0.005,0.027,101.0,102.0,100.0,13.4,1505.2,328.2,-0.7,1.8,2470.545,13.28,0.005,149.0
2021-07-07T04:25:03,42.805,6.029,0.014,0.001,0.005,102.0,102.0,101.0,13.3,1505.2,327.4,-0.8,1.9,2470.55,13.28,0.014,85.9
2021-07-07T04:28:03,42.805,6.029,0.007,0.008,0.047,103.0,103.0,99.0,13.4,1505.2,330.5,-0.8,1.8,2470.592,13.28,0.01,41.2
2021-07-07T04:31:03,42.805,6.029,0.01,0.013,0.007,101.0,103.0,100.0,13.4,1505.2,324.7,-0.8,1.8,2470.567,13.28,0.016,37.6
2021-07-07T04:34:03,42.805,6.029,0.013,-0.018,0.012,102.0,101.0,101.0,13.4,1505.2,326.6,-0.7,1.8,2470.561,13.28,0.022,144.2
2021-07-07T04:37:03,42.805,6.029,0.016,-0.005,0.037,102.0,102.0,100.0,13.4,1505.2,328.3,-0.7,1.8,2470.574,13.28,0.016,107.4
2021-07-07T04:40:03,42.805,6.029,0.007,0.002,0.009,99.0,101.0,102.0,13.4,1505.2,330.5,-0.8,1.8,2470.542,13.28,0.007,74.1
2021-07-07T04:43:03,42.805,6.029,-0.014,-0.004,-0.015,101.0,103.0,100.0,13.4,1505.2,330.2,-0.8,1.8,2470.53,13.28,0.014,254.1
2021-07-07T04:46:03,42.805,6.029,0.0,-0.003,-0.011,103.0,102.0,101.0,13.4,1505.2,326.3,-0.8,1.8,2470.543,13.28,0.003,180.0
2021-07-07T04:49:03,42.805,6.029,0.034,-0.024,-0.02,101.0,102.0,100.0,13.4,1505.2,328.6,-0.7,1.8,2470.539,13.28,0.041,125.2
2021-07-07T04:52:03,42.805,6.029,0.007,-0.003,-0.019,102.0,102.0,100.0,13.4,1505.2,324.7,-0.8,1.8,2470.582,13.28,0.007,113.2
2021-07-07T04:55:03,42.805,6.029,0.023,0.016,0.02,102.0,102.0,100.0,13.4,1505.2,330.1,-0.8,1.8,2470.534,13.28,0.028,55.2
2021-07-07T04:58:03,42.805,6.029,0.03,0.006,0.016,101.0,101.0,101.0,13.4,1505.2,329.6,-0.8,1.8,2470.564,13.28,0.03,78.7
2021-07-07T05:04:03,42.805,6.029,0.024,0.0,0.0,102.0,102.0,100.0,13.4,1505.2,329.3,-0.7,1.8,2470.6,13.28,0.024,90.0
2021-07-07T05:07:03,42.805,6.029,-0.001,-0.001,0.008,102.0,103.0,101.0,13.3,1505.2,325.8,-0.7,1.8,2470.567,13.28,0.001,225.0
2021-07-07T05:10:03,42.805,6.029,0.01,-0.006,0.027,101.0,103.0,101.0,13.4,1505.2,328.4,-0.7,1.8,2470.553,13.28,0.011,121.0
2021-07-07T05:13:03,42.805,6.029,0.01,0.013,-0.002,102.0,103.0,100.0,13.4,1505.2,328.3,-0.7,1.8,2470.547,13.28,0.016,37.6
2021-07-07T05:16:03,42.805,6.029,-0.002,0.0,-0.005,103.0,102.0,100.0,13.4,1505.2,327.2,-0.8,1.8,2470.552,13.28,0.002,270.0
2021-07-07T05:19:03,42.805,6.029,0.015,-0.006,-0.017,102.0,102.0,100.0,13.4,1505.2,326.5,-0.7,1.8,2470.562,13.28,0.016,111.8
2021-07-07T05:22:03,42.805,6.029,0.011,-0.003,0.034,101.0,102.0,100.0,13.4,1505.2,327.0,-0.8,1.8,2470.604,13.28,0.011,105.3
2021-07-07T05:25:03,42.805,6.029,-0.009,0.005,0.01,102.0,101.0,101.0,13.4,1505.2,329.1,-0.7,1.8,2470.59,13.28,0.01,299.1
2021-07-07T05:28:03,42.805,6.029,0.005,-0.009,0.001,102.0,102.0,100.0,13.3,1505.2,326.1,-0.8,1.8,2470.567,13.28,0.01,150.9
2021-07-07T05:31:03,42.805,6.029,-0.004,-0.002,0.019,102.0,101.0,100.0,13.4,1505.2,325.6,-0.7,1.8,2470.55,13.28,0.004,243.4
2021-07-07T05:34:03,42.805,6.029,-0.026,0.0,-0.027,102.0,103.0,100.0,13.4,1505.2,329.6,-0.8,1.8,2470.575,13.28,0.026,270.0
2021-07-07T05:37:03,42.805,6.029,-0.004,-0.012,-0.036,102.0,104.0,101.0,13.3,1505.2,327.3,-0.7,1.8,2470.596,13.28,0.012,198.4
2021-07-07T05:40:03,42.805,6.029,0.036,-0.017,-0.005,102.0,101.0,100.0,13.3,1505.2,328.2,-0.7,1.8,2470.557,13.28,0.039,115.3
2021-07-07T05:43:03,42.805,6.029,0.013,0.007,0.005,101.0,102.0,101.0,13.4,1505.2,326.8,-0.7,1.8,2470.578,13.28,0.014,61.7
2021-07-07T05:46:03,42.805,6.029,0.029,-0.014,0.0,101.0,101.0,101.0,13.3,1505.2,326.4,-0.8,1.8,2470.545,13.28,0.032,115.8
2021-07-07T05:49:03,42.805,6.029,0.044,-0.004,0.021,102.0,103.0,100.0,13.4,1505.2,325.6,-0.8,1.8,2470.549,13.28,0.044,95.2
2021-07-07T05:52:03,42.805,6.029,-0.027,-0.01,-0.024,103.0,102.0,100.0,13.3,1505.2,327.1,-0.8,1.8,2470.54,13.28,0.028,249.7
2021-07-07T05:55:03,42.805,6.029,0.009,-0.005,0.011,102.0,103.0,100.0,13.4,1505.2,326.4,-0.7,1.8,2470.539,13.28,0.01,119.1
2021-07-07T05:58:03,42.805,6.029,0.01,0.012,0.006,102.0,102.0,101.0,13.3,1505.2,325.6,-0.7,1.9,2470.557,13.28,0.015,39.8
2021-07-07T06:04:03,42.805,6.029,0.001,0.0,0.016,102.0,102.0,100.0,13.4,1505.2,328.2,-0.7,1.8,2470.594,13.28,0.001,90.0
2021-07-07T06:07:03,42.805,6.029,0.004,0.0,0.022,101.0,103.0,100.0,13.4,1505.2,329.7,-0.7,1.8,2470.588,13.28,0.004,90.0
2021-07-07T06:10:03,42.805,6.029,0.01,0.004,0.0,102.0,102.0,101.0,13.3,1505.2,327.1,-0.7,1.8,2470.556,13.28,0.01,68.2
2021-07-07T06:13:03,42.805,6.029,0.014,0.005,0.014,102.0,104.0,102.0,13.4,1505.2,325.2,-0.8,1.8,2470.547,13.28,0.014,70.4
2021-07-07T06:16:03,42.805,6.029,-0.004,-0.018,-0.016,101.0,101.0,100.0,13.4,1505.2,327.8,-0.7,1.8,2470.569,13.28,0.018,192.5
2021-07-07T06:19:03,42.805,6.029,0.016,-0.013,0.015,101.0,102.0,100.0,13.3,1505.2,330.6,-0.7,1.8,2470.555,13.28,0.02,129.1
2021-07-07T06:22:03,42.805,6.029,0.009,-0.014,0.001,101.0,103.0,100.0,13.4,1505.2,327.6,-0.7,1.8,2470.571,13.28,0.016,147.3
2021-07-07T06:25:03,42.805,6.029,0.006,-0.029,-0.022,101.0,102.0,100.0,13.3,1505.2,325.2,-0.8,1.8,2470.545,13.28,0.029,168.3
2021-07-07T06:28:03,42.805,6.029,-0.007,0.002,0.013,102.0,101.0,101.0,13.4,1505.2,324.8,-0.7,1.8,2470.53,13.28,0.007,285.9
2021-07-07T06:31:03,42.805,6.029,0.006,-0.007,0.003,102.0,102.0,100.0,13.4,1505.2,328.6,-0.7,1.8,2470.557,13.28,0.009,139.4
2021-07-07T06:34:03,42.805,6.029,0.006,-0.002,0.025,100.0,103.0,101.0,13.4,1505.2,327.3,-0.7,1.8,2470.574,13.28,0.006,108.4
2021-07-07T06:37:03,42.805,6.029,0.041,0.009,-0.013,103.0,103.0,99.0,13.4,1505.2,328.1,-0.7,1.8,2470.547,13.28,0.041,77.6
2021-07-07T06:40:03,42.805,6.029,0.025,-0.011,0.001,102.0,102.0,100.0,13.3,1505.2,326.5,-0.7,1.8,2470.562,13.28,0.027,113.7
2021-07-07T06:43:03,42.805,6.029,0.005,-0.004,0.03,102.0,102.0,99.0,13.4,1505.2,327.3,-0.8,1.8,2470.542,13.28,0.006,128.7
2021-07-07T06:46:03,42.805,6.029,-0.007,-0.001,0.012,101.0,101.0,102.0,13.3,1505.2,328.8,-0.8,1.8,2470.535,13.28,0.007,261.9
2021-07-07T06:49:03,42.805,6.029,-0.006,0.007,0.004,101.0,103.0,100.0,13.3,1505.2,328.5,-0.8,1.8,2470.536,13.28,0.009,319.4
2021-07-07T06:52:02,42.805,6.029,0.01,0.009,0.015,102.0,100.0,100.0,13.3,1505.2,328.3,-0.7,1.8,2470.546,13.28,0.013,48.0
2021-07-07T06:55:03,42.805,6.029,0.009,-0.017,-0.02,101.0,101.0,100.0,13.4,1505.2,326.5,-0.8,1.8,2470.538,13.28,0.019,152.1
2021-07-07T06:58:03,42.805,6.029,0.019,-0.021,-0.012,102.0,102.0,100.0,13.4,1505.2,324.8,-0.8,1.8,2470.51,13.28,0.028,137.9
2021-07-07T07:04:03,42.805,6.029,0.011,-0.013,-0.007,102.0,102.0,100.0,13.4,1505.2,327.0,-0.8,1.8,2470.584,13.28,0.017,139.8
2021-07-07T07:07:03,42.805,6.029,0.016,-0.028,0.008,101.0,102.0,100.0,13.3,1505.2,326.0,-0.8,1.9,2470.586,13.28,0.032,150.3
2021-07-07T07:10:03,42.805,6.029,0.008,0.007,-0.002,103.0,101.0,100.0,13.4,1505.2,325.7,-0.8,1.8,2470.516,13.28,0.01,48.8
2021-07-07T07:13:03,42.805,6.029,-0.01,-0.014,-0.007,101.0,103.0,101.0,13.3,1505.2,328.9,-0.7,1.8,2470.544,13.28,0.017,215.5
2021-07-07T07:16:03,42.805,6.029,0.001,0.005,0.028,102.0,104.0,100.0,13.4,1505.2,326.1,-0.8,1.8,2470.571,13.28,0.005,11.3
2021-07-07T07:19:03,42.805,6.029,-0.015,-0.017,0.015,102.0,103.0,100.0,13.4,1505.2,326.1,-0.7,1.9,2470.534,13.28,0.022,221.4
2021-07-07T07:22:03,42.805,6.029,0.009,-0.007,0.028,103.0,103.0,100.0,13.3,1505.2,326.3,-0.7,1.8,2470.552,13.28,0.011,127.9
2021-07-07T07:25:03,42.805,6.029,0.008,-0.022,-0.011,101.0,103.0,100.0,13.4,1505.2,329.8,-0.8,1.8,2470.519,13.28,0.023,160.0
2021-07-07T07:28:03,42.805,6.029,0.015,-0.008,0.008,103.0,100.0,100.0,13.3,1505.2,329.8,-0.7,1.8,2470.511,13.28,0.017,118.1
2021-07-07T07:31:02,42.805,6.029,0.002,0.002,0.003,102.0,103.0,101.0,13.4,1505.2,327.1,-0.8,1.9,2470.56,13.28,0.002,45.0
2021-07-07T07:34:03,42.805,6.029,0.001,0.0,0.021,101.0,101.0,100.0,13.4,1505.2,326.1,-0.8,1.8,2470.525,13.28,0.001,90.0
2021-07-07T07:37:02,42.805,6.029,0.0,0.001,-0.005,101.0,103.0,100.0,13.4,1505.2,328.6,-0.7,1.8,2470.555,13.28,0.001,0.0
2021-07-07T07:40:02,42.805,6.029,0.02,0.004,0.005,102.0,102.0,101.0,13.4,1505.2,325.7,-0.8,1.9,2470.527,13.28,0.02,78.7
2021-07-07T07:43:02,42.805,6.029,0.008,-0.027,-0.025,102.0,101.0,101.0,13.3,1505.2,329.0,-0.7,1.8,2470.508,13.28,0.028,163.5
2021-07-07T07:46:04,42.805,6.029,0.012,0.009,-0.009,102.0,100.0,101.0,13.4,1505.2,328.3,-0.7,1.8,2470.501,13.28,0.015,53.1
2021-07-07T07:49:02,42.805,6.029,0.022,-0.006,-0.018,102.0,102.0,100.0,13.4,1505.2,325.7,-0.8,1.8,2470.493,13.28,0.022,105.3
2021-07-07T07:52:02,42.805,6.029,0.009,-0.001,0.012,100.0,104.0,102.0,13.3,1505.2,329.3,-0.7,1.8,2470.543,13.28,0.009,96.3
2021-07-07T07:55:02,42.805,6.029,-0.002,0.011,0.025,102.0,103.0,100.0,13.3,1505.2,329.4,-0.7,1.8,2470.503,13.28,0.011,349.7
2021-07-07T07:58:02,42.805,6.029,0.004,-0.007,0.033,102.0,102.0,100.0,13.3,1505.2,328.9,-0.8,1.9,2470.508,13.28,0.008,150.3
2021-07-07T08:04:02,42.805,6.029,0.004,0.009,-0.011,101.0,101.0,100.0,13.3,1505.2,325.0,-0.7,1.8,2470.535,13.28,0.009,24.0
2021-07-07T08:07:02,42.805,6.029,0.021,0.006,0.03,101.0,103.0,101.0,13.4,1505.2,329.9,-0.7,1.8,2470.505,13.28,0.021,74.1
2021-07-07T08:10:03,42.805,6.029,0.021,-0.015,0.009,103.0,102.0,101.0,13.3,1505.2,326.7,-0.7,1.8,2470.588,13.28,0.025,125.5
2021-07-07T08:13:02,42.805,6.029,0.025,-0.011,0.034,100.0,103.0,101.0,13.4,1505.2,325.1,-0.7,1.8,2470.551,13.28,0.027,113.7
2021-07-07T08:16:02,42.805,6.029,0.007,-0.004,-0.009,101.0,102.0,101.0,13.3,1505.2,326.2,-0.7,1.8,2470.51,13.28,0.008,119.7
2021-07-07T08:19:02,42.805,6.029,0.012,-0.014,-0.046,102.0,102.0,102.0,13.4,1505.2,327.4,-0.7,1.8,2470.455,13.28,0.018,139.4
2021-07-07T08:22:02,42.805,6.029,0.0,-0.009,0.002,102.0,102.0,100.0,13.3,1505.2,327.7,-0.8,1.8,2470.494,13.28,0.009,180.0
2021-07-07T08:25:02,42.805,6.029,0.006,-0.004,0.029,102.0,102.0,100.0,13.4,1505.2,329.1,-0.7,1.9,2470.504,13.28,0.007,123.7
2021-07-07T08:28:02,42.805,6.029,0.003,-0.005,-0.008,103.0,102.0,100.0,13.3,1505.2,325.5,-0.7,1.8,2470.506,13.28,0.005,149.0
2021-07-07T08:31:02,42.805,6.029,0.009,-0.005,0.01,102.0,102.0,101.0,13.3,1505.2,329.3,-0.7,1.8,2470.494,13.28,0.01,119.1
2021-07-07T08:34:03,42.805,6.029,-0.006,0.001,-0.02,101.0,104.0,100.0,13.3,1505.2,328.1,-0.8,1.8,2470.499,13.28,0.006,279.5
2021-07-07T08:37:02,42.805,6.029,0.029,-0.007,0.009,101.0,104.0,100.0,13.4,1505.2,325.2,-0.8,1.8,2470.484,13.28,0.029,103.6
2021-07-07T08:40:02,42.805,6.029,0.017,0.009,0.032,102.0,103.0,100.0,13.4,1505.2,328.6,-0.7,1.8,2470.524,13.28,0.019,62.1
2021-07-07T08:43:03,42.805,6.029,-0.006,-0.004,-0.028,103.0,100.0,100.0,13.3,1505.2,325.7,-0.8,1.8,2470.494,13.28,0.007,236.3
2021-07-07T08:46:03,42.805,6.029,0.019,0.001,0.009,101.0,101.0,101.0,13.4,1505.2,326.0,-0.8,1.8,2470.504,13.28,0.019,87.0
2021-07-07T08:49:03,42.805,6.029,0.007,-0.016,0.011,104.0,103.0,99.0,13.4,1505.2,329.4,-0.7,1.8,2470.465,13.28,0.017,156.4
2021-07-07T08:52:02,42.805,6.029,-0.013,0.0,0.01,100.0,103.0,101.0,13.3,1505.2,326.8,-0.8,1.8,2470.482,13.28,0.013,270.0
2021-07-07T08:55:03,42.805,6.029,0.017,-0.025,-0.019,101.0,103.0,101.0,13.3,1505.2,327.2,-0.8,1.8,2470.492,13.28,0.03,145.8
2021-07-07T08:58:03,42.805,6.029,0.015,-0.022,-0.007,102.0,103.0,100.0,13.3,1505.2,328.3,-0.7,1.9,2470.478,13.28,0.026,145.7
2021-07-07T09:04:02,42.805,6.029,0.007,-0.032,0.023,102.0,102.0,101.0,13.3,1505.2,326.8,-0.8,1.8,2470.49,13.28,0.032,167.7
2021-07-07T09:07:02,42.805,6.029,0.026,-0.032,-0.008,101.0,102.0,101.0,13.4,1505.2,326.7,-0.8,1.8,2470.496,13.28,0.041,140.9
2021-07-07T09:10:03,42.805,6.029,0.032,0.0,0.022,102.0,104.0,100.0,13.4,1505.2,328.5,-0.7,1.8,2470.469,13.28,0.032,90.0
2021-07-07T09:13:03,42.805,6.029,0.037,-0.027,0.0,102.0,103.0,99.0,13.4,1505.2,327.6,-0.7,1.8,2470.525,13.28,0.045,126.1
2021-07-07T09:16:03,42.805,6.029,0.01,-0.011,-0.011,101.0,103.0,101.0,13.3,1505.2,329.7,-0.8,1.8,2470.516,13.28,0.014,137.7
2021-07-07T09:19:03,42.805,6.029,0.013,-0.023,-0.025,102.0,104.0,99.0,13.4,1505.2,329.5,-0.7,1.8,2470.487,13.28,0.026,150.5
2021-07-07T09:22:02,42.805,6.029,0.024,-0.004,0.001,103.0,103.0,100.0,13.3,1505.2,326.6,-0.8,1.8,2470.508,13.28,0.024,99.5
2021-07-07T09:25:03,42.805,6.029,0.018,-0.015,-0.019,102.0,102.0,101.0,13.3,1505.2,328.5,-0.7,1.8,2470.455,13.28,0.023,129.8
2021-07-07T09:28:03,42.805,6.029,0.013,-0.004,0.011,100.0,103.0,99.0,13.4,1505.2,325.1,-0.8,1.8,2470.508,13.28,0.013,107.1
2021-07-07T09:31:03,42.805,6.029,0.017,-0.008,0.03,102.0,104.0,100.0,13.4,1505.2,329.1,-0.7,1.8,2470.478,13.28,0.018,115.2
2021-07-07T09:34:03,42.805,6.029,0.023,0.017,0.039,102.0,101.0,100.0,13.4,1505.2,328.5,-0.7,1.9,2470.534,13.28,0.028,53.5
2021-07-07T09:37:02,42.805,6.029,0.008,-0.012,-0.023,100.0,101.0,101.0,13.4,1505.2,326.9,-0.7,1.8,2470.462,13.28,0.014,146.3
2021-07-07T09:40:03,42.805,6.029,0.0,0.002,0.001,100.0,102.0,101.0,13.4,1505.2,327.8,-0.8,1.8,2470.448,13.28,0.002,0.0
2021-07-07T09:43:03,42.805,6.029,0.008,0.001,0.013,101.0,102.0,100.0,13.4,1505.2,325.0,-0.8,1.8,2470.461,13.28,0.008,82.9
2021-07-07T09:46:03,42.805,6.029,0.0,-0.013,0.007,102.0,101.0,100.0,13.4,1505.2,326.6,-0.8,1.8,2470.507,13.28,0.013,180.0
2021-07-07T09:49:03,42.805,6.029,0.003,-0.002,-0.007,103.0,103.0,99.0,13.4,1505.2,330.1,-0.8,1.8,2470.468,13.28,0.003,123.7
2021-07-07T09:52:02,42.805,6.029,0.014,-0.004,0.0,102.0,101.0,100.0,13.4,1505.2,328.9,-0.8,1.8,2470.407,13.28,0.014,105.9
2021-07-07T09:55:03,42.805,6.029,0.013,-0.012,0.002,102.0,102.0,99.0,13.4,1505.2,329.2,-0.7,1.9,2470.434,13.28,0.017,132.7
2021-07-07T09:58:03,42.805,6.029,0.039,-0.016,0.003,101.0,101.0,101.0,13.4,1505.2,327.5,-0.8,1.8,2470.451,13.28,0.042,112.3
2021-07-07T10:04:02,42.805,6.029,0.016,-0.021,-0.001,103.0,101.0,101.0,13.4,1505.2,328.9,-0.8,1.8,2470.505,13.28,0.026,142.7